Location: Wanzleben
(52.0609°N, 11.4408°E)
Time: 16:06:33
(UTC+00:00)

CZ-2C R/B - Pass Details

Date: 18 September 2020
Orbit: 785 x 870 km, 98.2° (Epoch: 22 October)

Event Time Altitude Azimuth Distance (km) Brightness Sun altitude
Rises 19:15:05 0° 14° (NNE) 3,405 6.0 -17.7°
Reaches altitude 10° 19:17:26 10° 14° (NNE) 2,478 5.3 -18.0°
Maximum altitude 19:22:58 88° 286° (WNW) 865 2.7 -18.7°
Drops below altitude 10° 19:28:34 10° 198° (SSW) 2,502 5.0 -19.5°
Sets 19:30:57 0° 198° (SSW) 3,441 5.7 -19.8°
